STARLINK-33966, 64203

Orbit data source: Space-Track

STARLINK-33966, 64203 is a payload satellite owned by SpaceX/Seattle (US) in LEO that was launched on Sat, 31 May 2025 UTC via an FALCON 9 launch vehicle from the Air Force Western Test Range (AFWTR). Payload-class satellites include a variety of spacecraft equipped with specific instruments for various scientific and technological missions. These include communications satellites like Starlink; space stations such as the ISS; scientific satellites like the Hubble; Earth observation satellites from companies like Planet Labs, Umbra, and HawkEye 360; GPS; miniature CubeSats for education and research; and military/defense satellites.

Loading next visibility...
Identifier
64203, 2025-117A
Orbit
LEO
Country
Flag of USUS
Related business
Manufacturer
SpaceX/Seattle
Mission
Operational Commercial Communications
Bus & Motor
STARLINK V2MO, Unknown motor
Mass
575 kg wet, ~530 kg dry
Launch date (UTC)
2025-05-31 (1 year ago)
Launch vehicle
FALCON 9
Launch site
Air Force Western Test Range (AFWTR)
Object type
Payload
Rocket body
Debris
Shape & HBR
Box + 1 Pan, 17.7 m
Radar Cross Section
41.120 m², Large (>1 m²)

Expand to show TLE details & history
Last TLE update: 14 hours ago

TLE from 14 hours ago
0 STARLINK-33966
1 64203U 25117A   26235.70089452  .00032684  00000-0  97375-3 0  9991
2 64203  53.1619 343.3069 0000871  92.4720 267.6383 15.34416521 70138
Epoch: 2026-08-23T16:49Z
TLE epoch observation values (Epoch: 2026-08-23T16:49:17.286Z)
Latitude
0.00003°
Longitude
118.99172°
Altitude
463.58 km
Speed
7.636 km/s
True Right ascension
22h 53m 13s
True Declination
0° 00' 00"
Sunlit
Object was in full shadow at epoch
Visualization orbit readout
Latitude
Unknown
Longitude
Unknown
Altitude
Unknown
Speed
Unknown
Apparent Right ascension
Unknown
Apparent Declination
Unknown
Sunlit
N/A
Visualization observer readout
Local Sidereal Time
21:42:59
Azimuth
Unknown
Elevation
Unknown
Doppler factor
Unknown
Orbital elements
Apogee altitude
463.507 km
Perigee altitude
462.315 km
Semi-major axis
6,841.048 km
Eccentricity
0.00009
Inclination
53.1619°
RAAN
343.3069°
Arg. of periapsis
92.472°
True anomaly
267.62833°
Mean anomaly
267.6383°
Eccentric anomaly
267.63331°
Mean motion
3.83583 °/min
Orbital period
93.85 mins
BSTAR
0.00097375
Loading maneuver chart data...
Computing Atmospheric mass density...
Loading historical data...
Loading historical data...
Loading historical data...
Loading historical data...
Loading historical data...
Loading historical data...
Loading historical data...

Documentation

Showing up to 5 results
|